Location: ????????
(48.4751°N, 37.6926°E)
Time: 13:40:20
(UTC+00:00)

Cosmos 1833 Rocket - Pass Details

Date: 20 January 2021
Orbit: 833 x 839 km, 71.0° (Epoch: 26 February)

Event Time Altitude Azimuth Distance (km) Brightness Sun altitude
Rises 17:49:53 0° 329° (NNW) 3,392 6.3 -36.1°
Reaches altitude 10° 17:52:21 10° 326° (NW) 2,454 5.5 -36.5°
Enters shadow 17:54:54 27° 317° (NW) 1,551 4.4 -36.9°
